Location: Bangkok
(13.7500°N, 100.5170°E)
Time: 15:57:30
(UTC+07:00)

Hubble Space Telescope - Visible Passes

Search period start: 22 April 2018 00:00
Search period end: 02 May 2018 00:00
Orbit: 537 x 541 km, 28.5° (Epoch: 21 April)

Date Brightness Start Highest point End Pass type
(mag) Time Alt. Az. Time Alt. Az. Time Alt. Az.
22 Apr 0.8 04:51:04 25° WNW 04:53:24 81° NNE 04:57:32 10° ESE visible
22 Apr 1.1 20:10:10 10° WSW 20:13:36 60° WSW 20:13:36 60° WSW visible
23 Apr 0.6 04:42:04 48° W 04:43:06 73° SSW 04:47:13 10° ESE visible
23 Apr 1.0 19:59:55 10° WSW 20:04:01 65° NNW 20:04:45 53° NNE visible
24 Apr 1.1 04:33:11 49° S 04:33:11 49° S 04:36:48 10° SE visible
24 Apr 1.6 19:49:44 10° W 19:53:44 48° NNW 19:55:49 25° NE visible
25 Apr 2.4 04:24:22 23° SSE 04:24:22 23° SSE 04:26:16 10° SE visible
25 Apr 2.1 19:39:39 10° W 19:43:29 36° NNW 19:46:45 13° NE visible
26 Apr 3.4 04:15:33 10° SSE 04:15:33 10° SSE 04:15:37 10° SSE visible
26 Apr 2.6 19:29:38 10° W 19:33:14 28° NNW 19:36:50 10° NE visible
27 Apr 2.9 19:19:42 10° WNW 19:23:01 23° NNW 19:26:20 10° NE visible
28 Apr 3.2 19:09:50 10° WNW 19:12:49 19° NNW 19:15:49 10° NNE visible
29 Apr 3.4 19:00:02 10° NW 19:02:39 16° NNW 19:05:15 10° NNE visible
01 May 3.5 20:23:50 10° N 20:24:32 10° N 20:25:13 10° NNE visible
